DW2150 Weather Reports


Display with metric or nautical units.
time (UTC)temp
F
wind
direction
speed
MPH
gust
MPH
rain 1hr
in
rain 24hr
in
rain mn
in
humidity
%
barometer
mb
20260509085947 73 40 0.0 0.0 0.00 0.00 0.00 95 1009.5
20260509085443 73 40 0.0 0.0 0.00 0.00 0.00 95 1009.1
20260509084939 73 40 0.0 0.0 0.00 0.00 0.00 95 1009.5
20260509084437 73 40 0.0 0.0 0.00 0.00 0.00 95 1009.5
20260509083933 73 40 0.0 0.0 0.00 0.00 0.00 95 1009.5
20260509083430 73 40 0.0 0.0 0.00 0.00 0.00 95 1009.5
20260509082927 73 40 0.0 0.0 0.00 0.00 0.00 95 1009.5
20260509082321 73 40 0.0 0.0 0.00 0.00 0.00 95 1009.5
20260509081818 73 40 0.0 0.0 0.00 0.00 0.00 95 1009.8
20260509081315 73 40 0.0 0.0 0.00 0.00 0.00 95 1009.8
20260509080813 73 40 0.0 0.0 0.00 0.00 0.00 95 1009.8
20260509080207 73 40 0.0 0.0 0.00 0.00 0.00 95 1009.8
20260509075645 74 40 0.0 0.0 0.00 0.00 0.00 95 1009.8
20260509075141 74 40 0.0 0.0 0.00 0.00 0.00 95 1010.2
20260509074638 73 40 0.0 0.0 0.00 0.00 0.00 95 1010.2
20260509074135 73 40 0.0 0.0 0.00 0.00 0.00 95 1010.2
20260509073632 73 40 0.0 0.0 0.00 0.00 0.00 95 1010.2
20260509073129 74 40 0.0 0.0 0.00 0.00 0.00 95 1010.2
20260509072627 74 40 0.0 0.0 0.00 0.00 0.00 95 1010.2
20260509072123 74 40 0.0 0.0 0.00 0.00 0.00 95 1010.2
20260509071621 74 40 0.0 0.0 0.00 0.00 0.00 95 1010.2
20260509071028 74 40 0.0 0.0 0.00 0.00 0.00 95 1010.2
20260509070525 74 40 0.0 0.0 0.00 0.00 0.00 95 1010.2
20260509070003 74 40 0.0 0.0 0.00 0.00 0.00 95 1010.2
20260509065429 74 40 0.0 0.0 0.00 0.00 0.00 95 1010.2
20260509064926 74 40 0.0 0.0 0.00 0.00 0.00 95 1010.2
20260509064423 74 40 0.0 0.0 0.00 0.00 0.00 95 1009.8
20260509063849 74 40 0.0 0.0 0.00 0.00 0.00 95 1010.2
20260509063346 74 40 0.0 0.0 0.00 0.00 0.00 95 1010.2
20260509062843 74 40 0.0 0.0 0.00 0.00 0.00 95 1010.2
20260509062338 74 40 0.0 0.0 0.00 0.00 0.00 95 1010.5
20260509061835 74 40 0.0 0.0 0.00 0.00 0.00 95 1010.2
20260509061332 74 40 0.0 0.0 0.00 0.00 0.00 95 1010.2
20260509060829 74 40 0.0 0.0 0.00 0.00 0.00 95 1010.2
20260509060326 74 40 0.0 0.0 0.00 0.00 0.00 95 1010.2
20260509055823 74 40 0.0 0.0 0.00 0.00 0.00 95 1010.2
20260509055320 74 40 0.0 0.0 0.00 0.00 0.00 95 1010.2
20260509054817 75 40 0.0 0.0 0.00 0.00 0.00 95 1010.2
20260509054314 75 40 0.0 0.0 0.00 0.00 0.00 95 1010.2
20260509053740 75 40 0.0 0.0 0.00 0.00 0.00 95 1010.5
20260509053205 75 40 0.0 0.0 0.00 0.00 0.00 95 1010.5
20260509052702 75 40 0.0 0.0 0.00 0.00 0.00 95 1010.5
20260509052159 75 40 0.0 0.0 0.00 0.00 0.00 95 1010.5
20260509051656 75 40 0.0 0.0 0.00 0.00 0.00 94 1010.5
20260509051134 75 40 0.0 0.0 0.00 0.00 0.00 94 1010.5
20260509050632 75 40 0.0 0.0 0.00 0.00 0.00 94 1010.5
20260509050027 75 40 0.0 0.0 0.00 0.00 0.00 94 1010.8
20260509045350 75 40 0.0 0.0 0.00 0.00 0.00 94 1010.8
20260509044846 75 40 0.0 0.0 0.00 0.00 0.00 94 1010.8
20260509044344 75 40 0.0 0.0 0.00 0.00 0.00 94 1010.8
20260509043841 75 40 0.0 0.0 0.00 0.00 0.00 94 1010.8
20260509043338 75 40 0.0 0.0 0.00 0.00 0.00 94 1010.8
20260509042835 75 40 0.0 0.0 0.00 0.00 0.00 94 1010.8
20260509042332 75 40 0.0 0.0 0.00 0.00 0.00 94 1010.8
20260509041830 75 40 0.0 0.0 0.00 0.00 0.00 94 1010.5
20260509041327 75 40 0.0 0.0 0.00 0.00 0.00 94 1010.8
20260509040823 75 40 0.0 0.0 0.00 0.00 0.00 94 1010.8
20260509040320 75 40 0.0 0.0 0.00 0.00 0.00 94 1010.8
20260509035818 75 40 0.0 0.0 0.00 0.00 0.00 94 1010.5
20260509035315 75 40 0.0 0.0 0.00 0.00 0.00 94 1010.2
20260509034811 75 40 0.0 0.0 0.00 0.00 0.00 94 1010.5
20260509034308 75 40 0.0 0.0 0.00 0.00 0.00 94 1010.2
20260509033734 75 40 0.0 0.0 0.00 0.00 0.00 94 1010.2
20260509033231 75 40 0.0 0.0 0.00 0.00 0.00 94 1010.2
20260509032728 75 40 0.0 0.0 0.00 0.00 0.00 94 1010.2
20260509032225 75 40 0.0 0.0 0.00 0.00 0.00 94 1010.2
20260509031722 75 38 0.0 0.0 0.00 0.00 0.00 94 1010.2
20260509031219 75 36 0.0 0.0 0.00 0.00 0.00 94 1010.2
20260509030716 75 28 0.0 1.0 0.00 0.00 0.00 94 1010.2
20260509030213 75 28 0.0 4.0 0.00 0.00 0.00 94 1010.2
20260509025710 75 28 0.0 4.0 0.00 0.00 0.00 94 1010.2
20260509025207 75 28 0.0 4.0 0.00 0.00 0.00 94 1010.2
20260509024704 75 36 1.0 4.0 0.00 0.00 0.00 94 1009.8
20260509024201 75 95 1.0 1.0 0.00 0.00 0.00 94 1009.8
20260509023658 75 45 0.0 0.0 0.00 0.00 0.00 94 1009.8
20260509023155 75 355 0.0 2.0 0.00 0.00 0.00 94 1009.8
20260509022652 75 69 0.0 3.0 0.00 0.00 0.00 94 1010.2
20260509022117 75 69 0.0 3.0 0.00 0.00 0.00 94 1010.2
20260509021543 75 34 1.0 3.0 0.00 0.00 0.00 94 1009.8
20260509021039 75 23 1.0 4.0 0.00 0.00 0.00 94 1009.5
20260509020536 75 121 1.0 7.0 0.00 0.00 0.00 94 1009.5
20260509020032 75 53 1.0 7.0 0.00 0.00 0.00 94 1009.5
20260509015530 75 51 1.0 7.0 0.00 0.00 0.00 94 1009.5
20260509015027 75 34 1.0 7.0 0.00 0.00 0.00 94 1009.5
20260509014524 75 38 2.0 4.0 0.00 0.00 0.00 94 1009.1
20260509014021 75 58 2.0 4.0 0.00 0.00 0.00 94 1009.1
20260509013519 75 69 1.0 3.0 0.00 0.00 0.00 93 1009.5
20260509012945 75 41 2.0 3.0 0.00 0.00 0.00 93 1009.5
20260509012404 75 24 1.0 4.0 0.00 0.00 0.00 93 1009.5
20260509011901 75 24 1.0 5.0 0.00 0.00 0.00 93 1009.5
20260509011358 75 59 1.0 5.0 0.00 0.00 0.00 93 1009.8
20260509010856 75 59 0.0 5.0 0.00 0.00 0.00 93 1009.8
20260509010353 75 61 1.0 2.0 0.00 0.00 0.00 93 1009.5
20260509005850 75 79 1.0 2.0 0.00 0.00 0.00 93 1009.5
20260509005347 75 12 1.0 2.0 0.00 0.00 0.00 93 1009.5
20260509004845 75 19 1.0 3.0 0.00 0.00 0.00 93 1009.5
20260509004311 75 53 1.0 3.0 0.00 0.00 0.00 93 1009.8
20260509003737 75 61 1.0 10.0 0.00 0.00 0.00 93 1009.8
20260509003202 75 59 2.0 10.0 0.00 0.00 0.00 93 1009.8
20260509002659 75 25 1.0 10.0 0.00 0.00 0.00 93 1009.8
20260509002156 75 44 2.0 10.0 0.00 0.00 0.00 93 1009.1
20260509001653 75 59 1.0 6.0 0.00 0.00 0.00 93 1008.8
20260509001150 75 63 2.0 5.0 0.00 0.00 0.00 93 1008.8
20260509000616 75 45 1.0 6.0 0.00 0.00 0.00 92 1009.1
20260509000113 75 64 2.0 6.0 0.00 0.00 0.00 92 1009.5
20260508235549 75 34 1.0 4.0 0.00 0.00 0.00 92 1009.5
20260508235047 75 43 2.0 5.0 0.00 0.00 0.00 92 1009.8
20260508234512 75 38 0.0 5.0 0.00 0.00 0.00 92 1010.2
20260508233938 75 64 2.0 3.0 0.00 0.00 0.00 92 1010.2
20260508233435 75 12 1.0 3.0 0.00 0.00 0.00 92 1009.8
20260508232932 75 71 1.0 4.0 0.00 0.00 0.00 92 1009.5
20260508232429 75 63 2.0 4.0 0.00 0.00 0.00 92 1009.5
20260508231926 75 41 2.0 4.0 0.00 0.00 0.00 91 1009.5
20260508231423 75 45 2.0 8.0 0.00 0.00 0.00 91 1009.8
20260508230920 76 36 2.0 8.0 0.00 0.00 0.00 91 1009.8
20260508230417 76 37 2.0 8.0 0.00 0.00 0.00 91 1009.8
20260508225914 76 60 2.0 8.0 0.00 0.00 0.00 91 1009.5
20260508225411 76 48 2.0 6.0 0.00 0.00 0.00 91 1009.5
20260508224908 76 24 2.0 6.0 0.00 0.00 0.00 91 1009.5
20260508224405 76 35 2.0 6.0 0.00 0.00 0.00 91 1009.5
20260508223902 76 41 1.0 5.0 0.00 0.00 0.00 91 1009.5
20260508223359 76 39 2.0 5.0 0.00 0.00 0.00 91 1009.5
20260508222824 76 52 2.0 5.0 0.00 0.00 0.00 91 1009.5
20260508222320 76 26 2.0 6.0 0.00 0.00 0.00 91 1009.8
20260508221817 76 39 1.0 6.0 0.00 0.00 0.00 91 1009.8
20260508221314 75 52 2.0 6.0 0.00 0.00 0.00 91 1009.8
20260508220812 75 38 2.0 6.0 0.00 0.00 0.00 91 1009.8
20260508220308 75 24 1.0 4.0 0.00 0.00 0.00 91 1009.8
20260508215806 75 50 2.0 4.0 0.00 0.00 0.00 91 1009.8
20260508215306 75 46 1.0 4.0 0.00 0.00 0.00 91 1009.8
20260508214759 75 5 1.0 5.0 0.00 0.00 0.00 90 1010.2
20260508214154 75 354 1.0 5.0 0.00 0.00 0.00 90 1010.2
20260508213651 75 52 1.0 5.0 0.00 0.00 0.00 90 1009.8
20260508213117 75 52 1.0 5.0 0.00 0.00 0.00 91 1010.2
20260508212614 75 27 1.0 5.0 0.00 0.00 0.00 90 1010.2
20260508212040 74 355 2.0 4.0 0.00 0.00 0.00 91 1010.2
20260508211537 74 32 1.0 5.0 0.00 0.00 0.00 91 1009.8
20260508211034 74 64 2.0 5.0 0.00 0.00 0.00 90 1010.2
20260508210531 74 65 2.0 5.0 0.00 0.00 0.00 90 1010.2
20260508210028 74 64 2.0 5.0 0.00 0.00 0.00 90 1010.2
20260508205525 74 50 1.0 4.0 0.00 0.00 0.00 90 1010.2
20260508205023 74 22 0.0 5.0 0.00 0.00 0.00 90 1010.2
20260508204519 74 11 1.0 5.0 0.00 0.00 0.00 90 1010.2
20260508204016 75 32 2.0 5.0 0.00 0.00 0.00 90 1010.2
20260508203513 75 55 2.0 4.0 0.00 0.00 0.00 90 1010.2
20260508202952 74 50 1.0 5.0 0.00 0.00 0.00 90 1010.5
20260508202449 74 40 1.0 5.0 0.00 0.00 0.00 91 1010.5
20260508201946 74 23 0.0 5.0 0.00 0.00 0.00 90 1010.8
20260508201443 75 28 2.0 5.0 0.00 0.00 0.00 90 1010.5
20260508200940 74 71 2.0 5.0 0.00 0.00 0.00 91 1010.8
20260508200436 74 53 1.0 5.0 0.00 0.00 0.00 91 1010.8
20260508195933 74 43 2.0 5.0 0.00 0.00 0.00 91 1010.8
20260508195431 74 33 2.0 5.0 0.00 0.00 0.00 91 1010.8
20260508194927 74 53 1.0 5.0 0.00 0.00 0.00 92 1011.2
20260508194424 73 30 1.0 8.0 0.00 0.00 0.00 92 1011.2
20260508193921 73 49 2.0 8.0 0.00 0.00 0.00 92 1010.8
20260508193418 72 47 2.0 8.0 0.00 0.00 0.00 93 1010.8
20260508192915 72 47 2.0 7.0 0.00 0.00 0.00 93 1010.8
20260508192340 72 52 2.0 7.0 0.00 0.00 0.00 93 1010.8
20260508191838 72 52 2.0 7.0 0.00 0.00 0.00 94 1010.8
20260508191334 71 38 2.0 8.0 0.00 0.00 0.00 94 1010.8
20260508190831 71 60 3.0 8.0 0.00 0.00 0.00 94 1010.8
20260508190310 71 50 2.0 8.0 0.00 0.00 0.00 95 1011.2
20260508185807 70 39 2.0 8.0 0.00 0.00 0.00 95 1011.2
20260508185306 70 17 2.0 6.0 0.00 0.00 0.00 95 1011.2
20260508184801 70 45 3.0 6.0 0.00 0.00 0.00 95 1011.2
20260508184258 69 47 2.0 6.0 0.00 0.00 0.00 94 1011.2
20260508183755 69 62 1.0 5.0 0.00 0.00 0.00 94 1011.9
20260508183252 69 74 1.0 8.0 0.00 0.00 0.00 94 1011.9
20260508182749 69 53 2.0 9.0 0.00 0.00 0.00 94 1011.9
20260508182245 69 31 2.0 9.0 0.00 0.00 0.00 94 1011.9
20260508181742 69 37 2.0 10.0 0.00 0.00 0.00 94 1011.9
20260508181208 69 57 3.0 10.0 0.00 0.00 0.00 94 1011.9
20260508180633 69 30 2.0 5.0 0.00 0.00 0.00 94 1011.9
20260508180059 69 0 2.0 7.0 0.00 0.00 0.00 94 1011.9
20260508175538 69 80 0.0 7.0 0.00 0.00 0.00 94 1012.2
20260508175034 69 51 3.0 7.0 0.00 0.00 0.00 94 1012.2
20260508174531 69 34 2.0 7.0 0.00 0.00 0.00 94 1012.2
20260508174028 69 41 2.0 8.0 0.00 0.00 0.00 94 1012.2
20260508173525 69 61 3.0 8.0 0.00 0.00 0.00 94 1012.2
20260508173022 69 55 3.0 7.0 0.00 0.00 0.00 94 1011.9
20260508172519 69 70 2.0 6.0 0.00 0.00 0.00 94 1011.9
20260508172011 69 29 2.0 5.0 0.00 0.00 0.00 94 1012.2
20260508171508 68 15 1.0 6.0 0.00 0.00 0.00 94 1012.2
20260508170935 68 20 1.0 6.0 0.00 0.00 0.00 94 1012.5
20260508170432 68 73 2.0 6.0 0.00 0.00 0.00 93 1012.5
20260508165839 68 36 2.0 6.0 0.00 0.00 0.00 93 1012.9
20260508165336 68 29 2.0 7.0 0.00 0.00 0.00 93 1012.9
20260508164833 68 46 1.0 7.0 0.00 0.00 0.00 93 1012.9
20260508164329 68 42 2.0 7.0 0.00 0.00 0.00 93 1012.9
20260508163754 68 43 2.0 7.0 0.00 0.00 0.00 93 1012.9
20260508163251 68 36 2.0 7.0 0.00 0.00 0.00 93 1012.9
20260508162748 68 36 2.0 7.0 0.00 0.00 0.00 93 1013.2
20260508162245 68 62 3.0 7.0 0.00 0.00 0.00 93 1013.2
20260508161741 68 57 2.0 5.0 0.00 0.00 0.00 93 1013.2
20260508161239 69 85 1.0 8.0 0.00 0.00 0.00 93 1013.5
20260508160735 69 6 2.0 8.0 0.00 0.00 0.00 93 1013.2
20260508160232 68 28 2.0 8.0 0.00 0.00 0.00 93 1013.2
20260508155626 68 62 3.0 8.0 0.00 0.00 0.00 93 1013.5
20260508155123 68 72 3.0 7.0 0.00 0.00 0.00 93 1013.5
20260508154549 68 48 2.0 6.0 0.00 0.00 0.00 93 1013.5
20260508154046 68 63 0.0 5.0 0.00 0.00 0.00 94 1013.5
20260508153543 68 8 3.0 7.0 0.00 0.00 0.00 94 1013.5
20260508153039 68 67 3.0 7.0 0.00 0.00 0.00 93 1013.5
20260508152449 68 9 2.0 8.0 0.00 0.00 0.00 93 1013.5
20260508151946 68 55 3.0 8.0 0.00 0.00 0.00 93 1013.2
20260508151444 68 44 2.0 8.0 0.00 0.00 0.00 94 1013.2
20260508150940 68 25 3.0 8.0 0.00 0.00 0.00 93 1013.2
20260508150438 68 43 3.0 6.0 0.00 0.00 0.00 94 1013.2
20260508145913 68 40 3.0 8.0 0.00 0.00 0.00 94 1013.2
20260508145410 68 44 2.0 8.0 0.00 0.00 0.00 93 1013.5
20260508144907 68 21 2.0 8.0 0.00 0.00 0.00 93 1013.2
20260508144404 68 43 2.0 4.0 0.00 0.00 0.00 93 1013.2
20260508143902 68 54 1.0 3.0 0.00 0.00 0.00 93 1013.5
20260508143359 68 38 2.0 3.0 0.00 0.00 0.00 93 1013.5
20260508142856 68 41 1.0 5.0 0.00 0.00 0.00 93 1013.5
20260508142337 68 49 1.0 5.0 0.00 0.00 0.00 93 1013.9
20260508141835 68 5 1.0 5.0 0.00 0.00 0.00 93 1013.5
20260508141313 68 34 2.0 5.0 0.00 0.00 0.00 93 1013.2
20260508140751 68 49 1.0 4.0 0.00 0.00 0.00 93 1013.2
20260508140229 68 23 1.0 4.0 0.00 0.00 0.00 93 1013.2
20260508135726 68 14 1.0 4.0 0.00 0.00 0.00 93 1013.2
20260508135223 68 72 2.0 4.0 0.00 0.00 0.00 93 1013.2
20260508134720 68 34 0.0 5.0 0.00 0.00 0.00 93 1013.2
20260508134217 68 62 0.0 6.0 0.00 0.00 0.00 93 1013.2
20260508133714 68 30 2.0 6.0 0.00 0.00 0.00 93 1013.2
20260508133211 68 30 1.0 2.0 0.00 0.00 0.00 93 1013.2
20260508132708 68 35 0.0 4.0 0.00 0.00 0.00 93 1013.2
20260508132103 68 35 0.0 5.0 0.00 0.00 0.00 93 1013.5
20260508131528 68 57 0.0 7.0 0.00 0.00 0.00 93 1013.5
20260508130954 68 18 2.0 7.0 0.00 0.00 0.00 93 1013.2
20260508130432 68 27 1.0 7.0 0.00 0.00 0.00 93 1013.2
20260508125930 68 43 3.0 7.0 0.00 0.00 0.00 93 1012.9
20260508125355 68 64 2.0 7.0 0.00 0.00 0.00 93 1013.2
20260508124851 68 31 1.0 6.0 0.00 0.00 0.00 93 1013.2
20260508124348 69 58 2.0 6.0 0.00 0.00 0.00 93 1013.2
20260508123813 69 70 1.0 6.0 0.00 0.00 0.00 93 1013.5
20260508123312 69 78 1.0 4.0 0.00 0.00 0.00 93 1013.2
20260508122807 69 54 0.0 4.0 0.00 0.00 0.00 93 1013.2
20260508122307 69 67 0.0 4.0 0.00 0.00 0.00 93 1013.2
20260508121731 69 91 1.0 5.0 0.00 0.00 0.00 93 1013.2
20260508121226 69 51 1.0 6.0 0.00 0.00 0.00 93 1013.2
20260508120652 69 85 2.0 6.0 0.00 0.00 0.00 93 1012.9
20260508120118 69 67 2.0 6.0 0.00 0.00 0.00 93 1012.9
20260508115614 69 21 2.0 6.0 0.00 0.00 0.00 93 1012.9
20260508115111 69 35 2.0 5.0 0.00 0.00 0.00 93 1012.5
20260508114608 69 43 2.0 5.0 0.00 0.00 0.00 93 1012.9
20260508114105 69 30 2.0 5.0 0.00 0.00 0.00 93 1013.2
20260508113602 69 49 3.0 5.0 0.00 0.00 0.00 93 1012.9
20260508113059 69 41 2.0 5.0 0.00 0.00 0.00 93 1012.9
20260508112556 69 39 2.0 4.0 0.00 0.00 0.00 93 1013.2
20260508112053 69 37 2.0 4.0 0.00 0.00 0.00 93 1013.2
20260508111519 70 39 1.0 5.0 0.00 0.00 0.00 93 1013.2
20260508110944 70 42 1.0 5.0 0.00 0.00 0.00 93 1013.2
20260508110440 70 37 2.0 5.0 0.00 0.00 0.00 93 1013.2
20260508105906 70 6 1.0 4.0 0.00 0.00 0.00 93 1013.2
20260508105403 70 22 2.0 4.0 0.00 0.00 0.00 93 1012.5
20260508104900 69 80 1.0 4.0 0.00 0.00 0.00 93 1012.2
20260508104326 69 39 1.0 5.0 0.00 0.00 0.00 93 1012.2
20260508103824 69 61 1.0 7.0 0.00 0.00 0.00 93 1012.2
20260508103321 69 56 2.0 7.0 0.00 0.00 0.00 93 1012.5
20260508102818 70 50 2.0 8.0 0.00 0.00 0.00 93 1012.5
20260508102314 70 92 1.0 8.0 0.00 0.00 0.00 93 1012.5
20260508101811 70 35 2.0 6.0 0.00 0.00 0.00 93 1012.9
20260508101308 70 59 2.0 6.0 0.00 0.00 0.00 93 1012.9
20260508100805 70 44 2.0 6.0 0.00 0.00 0.00 93 1012.5
20260508100302 71 63 2.0 4.0 0.00 0.00 0.00 93 1012.5
20260508095759 71 53 2.0 6.0 0.00 0.00 0.00 93 1012.9
20260508095255 71 32 1.0 7.0 0.00 0.00 0.00 92 1012.9
20260508094751 72 29 1.0 7.0 0.00 0.00 0.00 92 1012.9
20260508094248 72 28 1.0 5.0 0.00 0.00 0.00 92 1012.9
20260508093643 73 64 2.0 5.0 0.00 0.00 0.00 92 1012.9
20260508093138 73 46 2.0 3.0 0.00 0.00 0.00 92 1012.9
20260508092635 73 50 1.0 3.0 0.00 0.00 0.00 92 1012.9
20260508092131 73 97 1.0 3.0 0.00 0.00 0.00 92 1012.9
20260508091628 73 32 1.0 5.0 0.00 0.00 0.00 92 1012.9
20260508091125 73 46 1.0 5.0 0.00 0.00 0.00 92 1012.9
20260508090521 73 42 0.0 5.0 0.00 0.00 0.00 91 1012.9